Regional Weather Roundup
Issued by NWS State College, PA

Home | Current Version | Previous Version | Text Only | Print | Product List | Glossary On
Versions: 1 2 3 4 5 6 7 8 9 10 11 12 13 14 15 16 17 18 19 20 21 22 23 24 25 26 27 28 29 30 31 32 33 34 35 36 37 38 39 40 41 42 43 44 45 46 47 48 49 50
810
ASUS41 KCTP 282110
RWRCTP

REGIONAL WEATHER ROUNDUP
NATIONAL WEATHER SERVICE STATE COLLEGE PA
500 PM EDT SUN MAY 28 2017

Note: "fair" indicates few or no clouds below 12,000 feet with no
significant weather and/or obstructions to visibility.

* = STATION THAT DOES NOT REPORT PRECIPITATION /E.G. RAIN...SNOW...ETC/
    THUNDER OR FOG.

PAZ002>004-007>009-013>016-020>023-029>032-282200-
WESTERN PENNSYLVANIA

CITY           SKY/WX    TMP DP  RH WIND       PRES   REMARKS
ERIE           CLOUDY    73  63  70 E6        29.72S
MEADVILLE      LGT RAIN  62  60  93 VRB5      29.75R
FRANKLIN*      CLOUDY    68  61  77 N9        29.79R
NEW CASTLE     MOCLDY    79  65  62 VRB6      29.73F THUNDER
BEAVER COUNTY  NOT AVBL
BUTLER*        PTSUNNY   75  64  69 SW12      29.75F
PITTSBURGH INT PTSUNNY   78  65  63 SW13      29.74F
PITTSBURGH     MOSUNNY   76  63  64 S7        29.75F
INDIANA*       PTSUNNY   68  64  88 SE10G20   29.82S
LATROBE        PTSUNNY   72  66  83 SE12      29.77F
WASHINGTON CO* CLOUDY    75  64  69 SW9       29.78F
$$

PAZ004>006-010>012-017>019-024>028-033>037-041-042-045-046-049>053-282200-
CENTRAL PENNSYLVANIA

CITY           SKY/WX    TMP DP  RH WIND       PRES   REMARKS
BRADFORD       CLOUDY    65  61  87 SE14G22   29.82S
DUBOIS         CLOUDY    65  59  81 SE8       29.80F
CLEARFIELD     LGT RAIN  63  61  93 VRB5      29.83F FOG
JOHNSTOWN      TSTM      61  61 100 SE5       29.86R FOG
ALTOONA        LGT RAIN  65  62  90 SE3       29.85S
STATE COLLEGE  CLOUDY    64  59  82 CALM      29.85S
WILLIAMSPORT   LGT RAIN  71  62  73 NE6       29.82F
SELINSGROVE    CLOUDY    69  63  81 CALM      29.85S
FT INDIANTOWN  CLOUDY    67  67 100 CALM      29.85S
CAPITAL CITY   CLOUDY    69  63  81 SE5       29.84F
HARRISBURG     CLOUDY    68  65  90 SE6       29.84S
YORK           CLOUDY    67  64  90 SE8       29.85S
$$

PAZ038>040-043-044-047-048-054-055-060>062-067>071-282200-
EASTERN PENNSYLVANIA

CITY           SKY/WX    TMP DP  RH WIND       PRES   REMARKS
SCRANTON       CLOUDY    72  55  55 VRB6      29.86R
MOUNT POCONO   CLOUDY    64  56  75 SE10      29.91R
ALLENTOWN      CLOUDY    73  57  57 SE7       29.87R
QUAKERTOWN*    CLOUDY    72  57  60 SE6       29.89R
READING        CLOUDY    71  62  73 S8        29.85S
LANCASTER      RAIN      68  64  87 S6        29.86S FOG
COATESVILLE    CLOUDY    68  61  77 VRB3      29.89S
POTTSTOWN      CLOUDY    71  58  63 VRB6      29.88F
BLUE BELL      CLOUDY    70  57  64 SE5       29.89S
DOYLESTOWN     CLOUDY    72  58  61 VRB5      29.87F
WILLOW GROVE   NOT AVBL
NORTH PHILA    CLOUDY    75  57  53 S7        29.89S
PHILADELPHIA   CLOUDY    73  56  54 SE10      29.87S
$$




USA.gov is the U.S. government's official web portal to all federal, state and local government web resources and services.